CDT,Max TemperatureF,Mean TemperatureF,Min TemperatureF,Max Dew PointF,MeanDew PointF,Min DewpointF,Max Humidity, Mean Humidity, Min Humidity, Max Sea Level PressureIn, Mean Sea Level PressureIn, Min Sea Level PressureIn, Max VisibilityMiles, Mean VisibilityMiles, Min VisibilityMiles, Max Wind SpeedMPH, Mean Wind SpeedMPH, Max Gust SpeedMPH,PrecipitationIn, CloudCover, Events, WindDirDegrees
2011-10-1,83,68,52,43,39,38,63,43,22,30.04,29.98,29.91,10,10,10,18,13,23,0.00,0,,155
2011-10-2,89,70,50,46,42,40,71,45,19,29.96,29.90,29.84,10,10,10,17,10,22,0.00,0,,138
2011-10-3,84,70,56,49,45,43,66,45,24,29.95,29.90,29.86,10,10,8,15,8,18,0.00,0,,143
2011-10-4,91,72,52,49,46,42,71,47,23,29.90,29.80,29.68,10,10,10,26,13,33,0.00,0,,136
2011-10-5,86,76,65,45,42,37,45,32,19,29.70,29.66,29.61,10,10,10,36,23,47,0.00,0,,158
2011-10-6,75,68,60,61,53,44,97,70,42,29.63,29.54,29.43,10,8,2,39,22,55,1.00,4,Rain,146
2011-10-7,71,63,55,58,44,32,90,58,26,29.76,29.54,29.43,10,10,10,40,23,53,0.00,0,,209
2011-10-8,59,55,50,48,46,43,89,73,57,30.20,30.01,29.79,10,10,10,16,9,18,T,5,Rain,325
2011-10-9,52,50,47,52,48,43,100,83,66,30.23,30.10,29.91,10,6,2,15,7,20,1.34,8,Rain,15
2011-10-10,64,56,48,50,48,45,100,78,56,29.90,29.82,29.73,10,10,7,14,8,53,T,6,Rain,203
2011-10-11,67,56,44,47,45,42,93,69,45,29.73,29.65,29.60,10,10,10,15,7,18,0.00,0,,155
2011-10-12,69,57,44,46,42,38,93,64,34,29.84,29.76,29.66,10,10,10,25,10,31,0.00,1,,310
2011-10-13,65,53,41,40,36,32,76,55,34,29.87,29.82,29.77,10,10,10,28,13,35,0.00,1,,309
2011-10-14,58,47,36,37,35,32,85,63,40,30.01,29.96,29.88,10,10,10,28,13,36,0.00,0,,313
2011-10-15,57,46,34,41,36,31,92,65,38,29.99,29.93,29.85,10,10,10,14,4,18,0.01,6,Rain,2
2011-10-16,56,44,32,38,33,27,100,68,35,30.11,30.04,29.98,10,10,10,22,11,31,0.00,0,,309
2011-10-17,60,44,28,31,28,21,92,58,23,30.12,30.06,30.01,10,10,10,26,11,35,0.00,0,,329
2011-10-18,56,44,31,33,31,28,89,62,35,30.25,30.20,30.13,10,10,10,17,9,24,0.00,2,,328
2011-10-19,47,36,24,32,25,19,92,63,34,30.27,30.21,30.15,10,10,10,10,6,15,0.00,0,,80
2011-10-20,54,40,25,34,29,24,100,68,35,30.14,30.04,29.95,10,10,10,23,8,31,0.00,0,,160
2011-10-21,67,50,32,40,36,31,96,65,34,30.11,30.03,29.93,10,10,10,15,4,18,0.00,0,,342
2011-10-22,69,51,33,47,40,33,100,70,40,30.10,30.00,29.88,10,10,5,21,5,25,T,2,,199
2011-10-23,65,50,35,42,39,36,89,64,39,29.96,29.89,29.83,10,10,10,20,5,24,T,2,Rain,314
2011-10-24,57,47,36,40,35,32,89,66,43,30.04,29.98,29.91,10,10,10,17,7,30,0.00,2,,23
2011-10-25,52,46,40,45,39,33,86,74,61,30.15,30.04,29.90,10,10,10,25,11,32,0.02,6,Rain,324
2011-10-26,53,40,27,36,30,23,100,66,32,30.25,30.18,30.12,10,10,10,24,8,31,0.00,4,,320
2011-10-27,56,39,21,32,26,21,96,63,29,30.12,30.05,29.95,10,10,10,17,6,28,0.00,1,,263
2011-10-28,54,40,25,30,23,14,89,55,20,30.19,30.14,30.06,10,10,10,24,8,30,0.00,0,,324
2011-10-29,57,43,28,38,28,22,82,60,38,30.03,29.86,29.75,10,10,10,26,12,37,0.01,4,,160
2011-10-30,53,41,29,35,27,22,85,58,30,30.04,29.99,29.91,10,10,10,25,11,31,0.00,0,,309
2011-10-31,64,47,30,41,33,28,96,62,28,29.99,29.82,29.70,10,10,10,17,9,24,T,1,,151